Time,TemperatureF,DewpointF,PressureIn,WindDirection,WindDirectionDegrees,WindSpeedMPH,WindSpeedGustMPH,Humidity,HourlyPrecipIn,Conditions,Clouds,dailyrainin,SoftwareType,DateUTC
2017-05-23 00:04:00,60.5,48.3,30.03,WSW,241,2.0,4.0,64,0.00,,---,0.00,VWS V15.00,2017-05-23 07:04:00,
2017-05-23 00:09:00,60.3,47.7,30.03,WSW,240,2.0,4.0,63,0.00,,---,0.00,VWS V15.00,2017-05-23 07:09:00,
2017-05-23 00:14:00,60.2,47.6,30.03,WSW,247,0.0,6.0,63,0.00,,---,0.00,VWS V15.00,2017-05-23 07:14:00,
2017-05-23 00:19:00,60.2,47.6,30.03,WSW,242,3.0,6.0,63,0.00,,---,0.00,VWS V15.00,2017-05-23 07:19:00,
2017-05-23 00:24:00,60.1,47.5,30.03,WSW,257,4.0,9.0,63,0.00,,---,0.00,VWS V15.00,2017-05-23 07:24:00,
2017-05-23 00:29:00,60.1,47.5,30.03,SW,236,0.0,9.0,63,0.00,,---,0.00,VWS V15.00,2017-05-23 07:29:00,
2017-05-23 00:34:00,60.2,47.6,30.03,WSW,250,0.0,3.0,63,0.00,,---,0.00,VWS V15.00,2017-05-23 07:34:00,
2017-05-23 00:39:00,60.1,47.9,30.02,WSW,252,0.0,7.0,64,0.00,,---,0.00,VWS V15.00,2017-05-23 07:39:00,
2017-05-23 00:44:00,60.1,48.3,30.02,WSW,237,0.0,7.0,65,0.00,,---,0.00,VWS V15.00,2017-05-23 07:44:00,
2017-05-23 00:49:00,60.0,48.6,30.02,WSW,240,0.0,7.0,66,0.00,,---,0.00,VWS V15.00,2017-05-23 07:49:00,
2017-05-23 00:54:00,59.7,48.7,30.02,SW,226,6.0,7.0,67,0.00,,---,0.00,VWS V15.00,2017-05-23 07:54:00,
2017-05-23 00:59:00,59.4,48.8,30.02,WSW,255,2.0,7.0,68,0.00,,---,0.00,VWS V15.00,2017-05-23 07:59:00,
2017-05-23 01:04:00,59.0,48.9,30.02,SW,233,0.0,7.0,69,0.00,,---,0.00,VWS V15.00,2017-05-23 08:04:00,
2017-05-23 01:09:00,58.6,48.9,30.02,SW,224,0.0,7.0,70,0.00,,---,0.00,VWS V15.00,2017-05-23 08:09:00,
2017-05-23 01:14:00,58.2,48.8,30.02,SW,219,6.0,7.0,71,0.00,,---,0.00,VWS V15.00,2017-05-23 08:14:00,
2017-05-23 01:19:00,57.7,49.1,30.02,WSW,250,2.0,7.0,73,0.00,,---,0.00,VWS V15.00,2017-05-23 08:19:00,
2017-05-23 01:24:00,57.3,49.1,30.02,WSW,239,0.0,7.0,74,0.00,,---,0.00,VWS V15.00,2017-05-23 08:24:00,
2017-05-23 01:29:00,56.9,49.4,30.02,SW,224,0.0,7.0,76,0.00,,---,0.00,VWS V15.00,2017-05-23 08:29:00,
2017-05-23 01:34:00,56.7,49.2,30.02,SW,226,0.0,0.0,76,0.00,,---,0.00,VWS V15.00,2017-05-23 08:34:00,
2017-05-23 01:39:00,56.4,49.3,30.02,WSW,248,0.0,5.0,77,0.00,,---,0.00,VWS V15.00,2017-05-23 08:39:00,
2017-05-23 01:44:00,56.4,49.3,30.01,WSW,248,3.0,5.0,77,0.00,,---,0.00,VWS V15.00,2017-05-23 08:44:00,
2017-05-23 01:49:00,56.4,49.6,30.01,WSW,248,0.0,5.0,78,0.00,,---,0.00,VWS V15.00,2017-05-23 08:49:00,
2017-05-23 01:54:00,56.7,49.9,30.01,SW,233,0.0,5.0,78,0.00,,---,0.00,VWS V15.00,2017-05-23 08:54:00,
2017-05-23 01:59:00,56.7,49.9,30.01,SW,233,0.0,6.0,78,0.00,,---,0.00,VWS V15.00,2017-05-23 08:59:00,
2017-05-23 02:04:00,56.6,49.8,30.01,WSW,254,2.0,7.0,78,0.00,,---,0.00,VWS V15.00,2017-05-23 09:04:00,
2017-05-23 02:09:00,56.6,49.8,30.01,WSW,248,0.0,7.0,78,0.00,,---,0.00,VWS V15.00,2017-05-23 09:09:00,
2017-05-23 02:14:00,56.5,49.4,30.01,SW,217,4.0,11.0,77,0.00,,---,0.00,VWS V15.00,2017-05-23 09:14:00,
2017-05-23 02:19:00,56.6,49.1,30.01,WSW,254,0.0,11.0,76,0.00,,---,0.00,VWS V15.00,2017-05-23 09:19:00,
2017-05-23 02:24:00,56.6,48.8,30.01,WSW,237,3.0,11.0,75,0.00,,---,0.00,VWS V15.00,2017-05-23 09:24:00,
2017-05-23 02:29:00,56.7,48.2,30.01,WSW,246,0.0,11.0,73,0.00,,---,0.00,VWS V15.00,2017-05-23 09:29:00,
2017-05-23 02:34:00,56.8,48.2,30.01,WSW,255,0.0,4.0,73,0.00,,---,0.00,VWS V15.00,2017-05-23 09:34:00,
2017-05-23 02:39:00,56.7,48.2,30.01,WSW,239,0.0,4.0,73,0.00,,---,0.00,VWS V15.00,2017-05-23 09:39:00,
2017-05-23 02:44:00,56.7,48.9,30.01,West,271,0.0,6.0,75,0.00,,---,0.00,VWS V15.00,2017-05-23 09:44:00,
2017-05-23 02:49:00,56.5,49.0,30.00,WSW,257,4.0,9.0,76,0.00,,---,0.00,VWS V15.00,2017-05-23 09:49:00,
2017-05-23 02:54:00,56.3,48.8,30.01,WSW,250,0.0,9.0,76,0.00,,---,0.00,VWS V15.00,2017-05-23 09:54:00,
2017-05-23 02:59:00,56.2,49.1,30.00,WSW,243,0.0,9.0,77,0.00,,---,0.00,VWS V15.00,2017-05-23 09:59:00,
2017-05-23 03:04:00,56.3,48.8,30.00,West,277,2.0,7.0,76,0.00,,---,0.00,VWS V15.00,2017-05-23 10:04:00,
2017-05-23 03:09:00,56.4,48.9,30.00,WSW,254,2.0,8.0,76,0.00,,---,0.00,VWS V15.00,2017-05-23 10:09:00,
2017-05-23 03:14:00,56.3,48.5,30.00,SSW,202,0.0,8.0,75,0.00,,---,0.00,VWS V15.00,2017-05-23 10:14:00,
2017-05-23 03:19:00,56.3,48.5,30.00,WSW,238,0.0,8.0,75,0.00,,---,0.00,VWS V15.00,2017-05-23 10:19:00,
2017-05-23 03:24:00,56.2,48.0,30.01,WSW,248,6.0,8.0,74,0.00,,---,0.00,VWS V15.00,2017-05-23 10:24:00,
2017-05-23 03:29:00,56.3,48.5,30.01,West,269,3.0,11.0,75,0.00,,---,0.00,VWS V15.00,2017-05-23 10:29:00,
2017-05-23 03:34:00,56.3,49.2,30.01,WSW,240,0.0,12.0,77,0.00,,---,0.00,VWS V15.00,2017-05-23 10:34:00,
2017-05-23 03:39:00,56.3,49.2,30.01,SW,234,3.0,12.0,77,0.00,,---,0.00,VWS V15.00,2017-05-23 10:39:00,
2017-05-23 03:44:00,56.2,49.4,30.01,SW,230,3.0,12.0,78,0.00,,---,0.00,VWS V15.00,2017-05-23 10:44:00,
2017-05-23 03:49:00,56.0,49.2,30.01,WSW,251,3.0,12.0,78,0.00,,---,0.00,VWS V15.00,2017-05-23 10:49:00,
2017-05-23 03:54:00,55.8,49.4,30.01,WNW,285,2.0,12.0,79,0.00,,---,0.00,VWS V15.00,2017-05-23 10:54:00,
2017-05-23 03:59:00,55.5,49.1,30.01,WSW,243,4.0,12.0,79,0.00,,---,0.00,VWS V15.00,2017-05-23 10:59:00,
2017-05-23 04:04:00,55.1,49.0,30.01,SW,233,0.0,9.0,80,0.00,,---,0.00,VWS V15.00,2017-05-23 11:04:00,
2017-05-23 04:09:00,54.7,49.0,30.01,WSW,256,3.0,9.0,81,0.00,,---,0.00,VWS V15.00,2017-05-23 11:09:00,
2017-05-23 04:14:00,54.4,49.0,30.01,WSW,249,1.0,9.0,82,0.00,,---,0.00,VWS V15.00,2017-05-23 11:14:00,
2017-05-23 04:19:00,54.2,48.8,30.01,West,264,0.0,9.0,82,0.00,,---,0.00,VWS V15.00,2017-05-23 11:19:00,
2017-05-23 04:24:00,54.0,49.0,30.02,West,263,0.0,9.0,83,0.00,,---,0.00,VWS V15.00,2017-05-23 11:24:00,
2017-05-23 04:29:00,53.7,48.7,30.02,SW,227,4.0,9.0,83,0.00,,---,0.00,VWS V15.00,2017-05-23 11:29:00,
2017-05-23 04:34:00,53.6,48.9,30.02,SW,228,0.0,7.0,84,0.00,,---,0.00,VWS V15.00,2017-05-23 11:34:00,
2017-05-23 04:39:00,53.4,49.0,30.02,West,266,0.0,8.0,85,0.00,,---,0.00,VWS V15.00,2017-05-23 11:39:00,
2017-05-23 04:44:00,53.2,48.8,30.02,West,271,0.0,8.0,85,0.00,,---,0.00,VWS V15.00,2017-05-23 11:44:00,
2017-05-23 04:49:00,53.0,48.6,30.02,West,270,0.0,8.0,85,0.00,,---,0.00,VWS V15.00,2017-05-23 11:49:00,
2017-05-23 04:54:00,52.8,48.4,30.02,West,259,0.0,8.0,85,0.00,,---,0.00,VWS V15.00,2017-05-23 11:54:00,
2017-05-23 04:59:00,52.7,48.6,30.02,WSW,257,0.0,8.0,86,0.00,,---,0.00,VWS V15.00,2017-05-23 11:59:00,
2017-05-23 05:04:00,52.5,48.4,30.02,WSW,245,0.0,6.0,86,0.00,,---,0.00,VWS V15.00,2017-05-23 12:04:00,
2017-05-23 05:09:00,52.4,48.3,30.03,West,261,0.0,7.0,86,0.00,,---,0.00,VWS V15.00,2017-05-23 12:09:00,
2017-05-23 05:14:00,52.2,48.2,30.03,WSW,249,4.0,7.0,86,0.00,,---,0.00,VWS V15.00,2017-05-23 12:14:00,
2017-05-23 05:19:00,52.0,48.3,30.03,West,266,0.0,8.0,87,0.00,,---,0.00,VWS V15.00,2017-05-23 12:19:00,
2017-05-23 05:24:00,51.8,48.1,30.02,SW,224,3.0,8.0,87,0.00,,---,0.00,VWS V15.00,2017-05-23 12:24:00,
2017-05-23 05:29:00,51.6,48.2,30.03,WSW,240,5.0,8.0,88,0.00,,---,0.00,VWS V15.00,2017-05-23 12:29:00,
2017-05-23 05:34:00,51.4,48.0,30.03,WSW,250,2.0,9.0,88,0.00,,---,0.00,VWS V15.00,2017-05-23 12:34:00,
2017-05-23 05:39:00,51.3,47.9,30.03,WSW,239,4.0,9.0,88,0.00,,---,0.00,VWS V15.00,2017-05-23 12:39:00,
2017-05-23 05:44:00,51.1,48.0,30.03,WSW,245,4.0,10.0,89,0.00,,---,0.00,VWS V15.00,2017-05-23 12:44:00,
2017-05-23 05:49:00,51.1,48.0,30.03,SW,224,2.0,11.0,89,0.00,,---,0.00,VWS V15.00,2017-05-23 12:49:00,
2017-05-23 05:54:00,51.1,48.0,30.03,SW,216,4.0,11.0,89,0.00,,---,0.00,VWS V15.00,2017-05-23 12:54:00,
2017-05-23 05:59:00,51.2,48.4,30.03,WSW,243,3.0,11.0,90,0.00,,---,0.00,VWS V15.00,2017-05-23 12:59:00,
2017-05-23 06:04:00,51.2,48.4,30.03,WSW,248,1.0,11.0,90,0.00,,---,0.00,VWS V15.00,2017-05-23 13:04:00,
2017-05-23 06:09:00,51.2,48.4,30.03,WSW,243,5.0,11.0,90,0.00,,---,0.00,VWS V15.00,2017-05-23 13:09:00,
2017-05-23 06:14:00,51.2,48.4,30.03,WSW,248,0.0,11.0,90,0.00,,---,0.00,VWS V15.00,2017-05-23 13:14:00,
2017-05-23 06:19:00,51.3,48.5,30.03,WSW,245,1.0,11.0,90,0.00,,---,0.00,VWS V15.00,2017-05-23 13:19:00,
2017-05-23 06:24:00,51.3,48.5,30.03,WSW,247,3.0,11.0,90,0.00,,---,0.00,VWS V15.00,2017-05-23 13:24:00,
2017-05-23 06:29:00,51.2,48.7,30.03,WSW,244,2.0,12.0,91,0.00,,---,0.00,VWS V15.00,2017-05-23 13:29:00,
2017-05-23 06:34:00,51.2,48.7,30.03,SW,233,6.0,10.0,91,0.00,,---,0.00,VWS V15.00,2017-05-23 13:34:00,
2017-05-23 06:39:00,51.1,48.6,30.03,WSW,257,1.0,12.0,91,0.00,,---,0.00,VWS V15.00,2017-05-23 13:39:00,
2017-05-23 06:44:00,51.2,48.7,30.03,NW,307,0.0,12.0,91,0.00,,---,0.00,VWS V15.00,2017-05-23 13:44:00,
2017-05-23 06:49:00,51.2,48.7,30.03,WSW,244,4.0,12.0,91,0.00,,---,0.00,VWS V15.00,2017-05-23 13:49:00,
2017-05-23 06:54:00,51.2,48.7,30.03,SW,229,7.0,12.0,91,0.00,,---,0.00,VWS V15.00,2017-05-23 13:54:00,
2017-05-23 06:59:00,51.1,48.6,30.03,SW,226,0.0,12.0,91,0.00,,---,0.00,VWS V15.00,2017-05-23 13:59:00,
2017-05-23 07:04:00,51.2,48.7,30.03,SSW,199,0.0,3.0,91,0.00,,---,0.00,VWS V15.00,2017-05-23 14:04:00,
2017-05-23 07:09:00,51.3,48.8,30.03,SW,233,6.0,13.0,91,0.00,,---,0.00,VWS V15.00,2017-05-23 14:09:00,
2017-05-23 07:14:00,51.2,48.7,30.03,SW,216,11.0,16.0,91,0.00,,---,0.00,VWS V15.00,2017-05-23 14:14:00,
2017-05-23 07:19:00,51.2,48.7,30.03,WSW,249,7.0,16.0,91,0.00,,---,0.00,VWS V15.00,2017-05-23 14:19:00,
2017-05-23 07:24:00,51.3,48.8,30.03,SW,224,11.0,16.0,91,0.00,,---,0.00,VWS V15.00,2017-05-23 14:24:00,
2017-05-23 07:29:00,51.3,48.8,30.02,WSW,248,1.0,16.0,91,0.00,,---,0.00,VWS V15.00,2017-05-23 14:29:00,
2017-05-23 07:34:00,51.3,48.8,30.02,SW,231,3.0,14.0,91,0.00,,---,0.00,VWS V15.00,2017-05-23 14:34:00,
2017-05-23 07:39:00,51.4,49.2,30.03,SSW,200,5.0,14.0,92,0.00,,---,0.00,VWS V15.00,2017-05-23 14:39:00,
2017-05-23 07:44:00,51.4,49.2,30.03,WSW,246,4.0,14.0,92,0.00,,---,0.00,VWS V15.00,2017-05-23 14:44:00,
2017-05-23 07:49:00,51.5,49.3,30.03,WNW,288,3.0,15.0,92,0.00,,---,0.00,VWS V15.00,2017-05-23 14:49:00,
2017-05-23 07:50:00,51.5,49.3,30.03,South,169,1.0,15.0,92,0.00,,---,0.00,VWS V15.00,2017-05-23 14:50:00,
2017-05-23 07:55:00,51.6,49.4,30.03,SW,222,2.0,18.0,92,0.00,,---,0.00,VWS V15.00,2017-05-23 14:55:00,
2017-05-23 08:00:00,51.9,49.4,30.03,WSW,238,3.0,3.0,91,0.00,,---,0.00,VWS V15.00,2017-05-23 15:00:00,
2017-05-23 08:05:00,51.9,49.4,30.02,SW,233,6.0,18.0,91,0.00,,---,0.00,VWS V15.00,2017-05-23 15:05:00,
2017-05-23 08:10:00,51.9,49.4,30.02,SSW,197,1.0,18.0,91,0.00,,---,0.00,VWS V15.00,2017-05-23 15:10:00,
2017-05-23 08:15:00,51.9,49.4,30.02,WSW,246,5.0,18.0,91,0.00,,---,0.00,VWS V15.00,2017-05-23 15:15:00,
2017-05-23 08:20:00,52.0,49.5,30.02,West,272,2.0,21.0,91,0.00,,---,0.00,VWS V15.00,2017-05-23 15:20:00,
2017-05-23 08:25:00,52.5,50.0,30.02,WSW,247,11.0,21.0,91,0.00,,---,0.00,VWS V15.00,2017-05-23 15:25:00,
2017-05-23 08:30:00,52.8,50.0,30.02,WSW,250,5.0,5.0,90,0.00,,---,0.00,VWS V15.00,2017-05-23 15:30:00,
2017-05-23 08:35:00,53.2,50.3,30.02,WSW,244,7.0,14.0,90,0.00,,---,0.00,VWS V15.00,2017-05-23 15:35:00,
2017-05-23 08:36:00,53.2,50.3,30.02,WNW,300,2.0,14.0,90,0.00,,---,0.00,VWS V15.00,2017-05-23 15:36:00,
2017-05-23 08:41:00,53.6,50.4,30.02,West,260,2.0,14.0,89,0.00,,---,0.00,VWS V15.00,2017-05-23 15:41:00,
2017-05-23 08:46:00,53.7,50.2,30.02,SW,231,4.0,16.0,88,0.00,,---,0.00,VWS V15.00,2017-05-23 15:46:00,
2017-05-23 08:51:00,53.8,50.0,30.02,SW,225,7.0,16.0,87,0.00,,---,0.00,VWS V15.00,2017-05-23 15:51:00,
2017-05-23 08:56:00,53.8,50.0,30.02,South,191,15.0,19.0,87,0.00,,---,0.00,VWS V15.00,2017-05-23 15:56:00,
2017-05-23 09:01:00,53.7,49.9,30.02,WSW,258,6.0,16.0,87,0.00,,---,0.00,VWS V15.00,2017-05-23 16:01:00,
2017-05-23 09:06:00,53.8,50.0,30.02,West,270,0.0,19.0,87,0.00,,---,0.00,VWS V15.00,2017-05-23 16:06:00,
2017-05-23 09:11:00,54.4,50.6,30.01,NNW,348,4.0,19.0,87,0.00,,---,0.00,VWS V15.00,2017-05-23 16:11:00,
2017-05-23 09:16:00,54.8,50.7,30.01,WSW,243,10.0,19.0,86,0.00,,---,0.00,VWS V15.00,2017-05-23 16:16:00,
2017-05-23 09:21:00,55.2,50.8,30.01,WNW,286,0.0,19.0,85,0.00,,---,0.00,VWS V15.00,2017-05-23 16:21:00,
2017-05-23 09:26:00,55.4,50.7,30.01,WSW,240,2.0,19.0,84,0.00,,---,0.00,VWS V15.00,2017-05-23 16:26:00,
2017-05-23 09:31:00,55.9,50.8,30.01,SSE,148,4.0,11.0,83,0.00,,---,0.00,VWS V15.00,2017-05-23 16:31:00,
2017-05-23 09:36:00,55.8,50.4,30.00,SW,224,10.0,17.0,82,0.00,,---,0.00,VWS V15.00,2017-05-23 16:36:00,
2017-05-23 09:41:00,55.7,50.6,30.00,SW,227,8.0,17.0,83,0.00,,---,0.00,VWS V15.00,2017-05-23 16:41:00,
2017-05-23 09:46:00,55.7,50.3,30.00,SSW,199,8.0,20.0,82,0.00,,---,0.00,VWS V15.00,2017-05-23 16:46:00,
2017-05-23 09:51:00,55.7,50.3,30.00,WNW,299,2.0,20.0,82,0.00,,---,0.00,VWS V15.00,2017-05-23 16:51:00,
2017-05-23 09:56:00,55.1,49.7,30.00,SW,234,7.0,23.0,82,0.00,,---,0.00,VWS V15.00,2017-05-23 16:56:00,
2017-05-23 10:01:00,55.0,49.9,30.00,WSW,250,3.0,3.0,83,0.00,,---,0.00,VWS V15.00,2017-05-23 17:01:00,
2017-05-23 10:06:00,54.9,49.8,30.00,WSW,238,20.0,24.0,83,0.00,,---,0.00,VWS V15.00,2017-05-23 17:06:00,
2017-05-23 10:11:00,54.4,49.7,30.00,North,359,4.0,26.0,84,0.00,,---,0.00,VWS V15.00,2017-05-23 17:11:00,
2017-05-23 10:16:00,54.9,49.8,29.99,WNW,283,7.0,26.0,83,0.00,,---,0.00,VWS V15.00,2017-05-23 17:16:00,
2017-05-23 10:21:00,55.6,50.8,30.00,SW,236,11.0,26.0,84,0.00,,---,0.00,VWS V15.00,2017-05-23 17:21:00,
2017-05-23 10:22:00,55.7,50.6,30.00,West,274,7.0,26.0,83,0.00,,---,0.00,VWS V15.00,2017-05-23 17:22:00,
2017-05-23 10:27:00,56.2,50.8,30.00,WNW,297,2.0,26.0,82,0.00,,---,0.00,VWS V15.00,2017-05-23 17:27:00,
2017-05-23 10:32:00,56.7,51.3,30.00,West,262,3.0,22.0,82,0.00,,---,0.00,VWS V15.00,2017-05-23 17:32:00,
2017-05-23 10:37:00,56.7,50.6,30.00,West,262,18.0,23.0,80,0.00,,---,0.00,VWS V15.00,2017-05-23 17:37:00,
2017-05-23 10:42:00,56.6,50.8,30.00,SW,223,5.0,23.0,81,0.00,,---,0.00,VWS V15.00,2017-05-23 17:42:00,
2017-05-23 10:47:00,56.8,50.7,30.00,WSW,250,9.0,24.0,80,0.00,,---,0.00,VWS V15.00,2017-05-23 17:47:00,
2017-05-23 10:52:00,56.8,50.4,30.00,West,261,9.0,24.0,79,0.00,,---,0.00,VWS V15.00,2017-05-23 17:52:00,
2017-05-23 10:57:00,57.0,50.6,30.01,SSW,206,13.0,24.0,79,0.00,,---,0.00,VWS V15.00,2017-05-23 17:57:00,
2017-05-23 11:02:00,57.3,51.2,30.01,SW,232,19.0,21.0,80,0.00,,---,0.00,VWS V15.00,2017-05-23 18:02:00,
2017-05-23 11:07:00,57.1,51.0,30.01,SW,236,9.0,23.0,80,0.00,,---,0.00,VWS V15.00,2017-05-23 18:07:00,
2017-05-23 11:12:00,57.1,50.7,30.01,SSW,207,19.0,25.0,79,0.00,,---,0.00,VWS V15.00,2017-05-23 18:12:00,
2017-05-23 11:17:00,57.1,51.0,30.01,WSW,240,16.0,25.0,80,0.00,,---,0.00,VWS V15.00,2017-05-23 18:17:00,
2017-05-23 11:22:00,57.3,50.8,30.01,West,260,18.0,25.0,79,0.00,,---,0.00,VWS V15.00,2017-05-23 18:22:00,
2017-05-23 11:27:00,57.3,51.2,30.01,SSW,193,7.0,29.0,80,0.00,,---,0.00,VWS V15.00,2017-05-23 18:27:00,
2017-05-23 11:32:00,57.0,50.9,30.00,SW,224,19.0,22.0,80,0.00,,---,0.00,VWS V15.00,2017-05-23 18:32:00,
2017-05-23 11:37:00,56.9,50.8,30.01,WNW,282,11.0,25.0,80,0.00,,---,0.00,VWS V15.00,2017-05-23 18:37:00,
2017-05-23 11:42:00,57.5,51.7,30.01,SSW,211,15.0,25.0,81,0.00,,---,0.00,VWS V15.00,2017-05-23 18:42:00,
2017-05-23 11:47:00,57.6,51.8,30.02,WNW,291,4.0,25.0,81,0.00,,---,0.00,VWS V15.00,2017-05-23 18:47:00,
2017-05-23 11:52:00,58.1,51.6,30.02,WSW,253,8.0,25.0,79,0.00,,---,0.00,VWS V15.00,2017-05-23 18:52:00,
2017-05-23 11:57:00,57.8,51.0,30.02,WSW,248,10.0,25.0,78,0.00,,---,0.00,VWS V15.00,2017-05-23 18:57:00,
2017-05-23 12:02:00,57.8,51.3,30.03,NW,324,6.0,19.0,79,0.00,,---,0.00,VWS V15.00,2017-05-23 19:02:00,
2017-05-23 12:07:00,58.4,51.9,30.02,West,266,3.0,19.0,79,0.00,,---,0.00,VWS V15.00,2017-05-23 19:07:00,
2017-05-23 12:12:00,59.1,52.6,30.02,WSW,244,6.0,19.0,79,0.00,,---,0.00,VWS V15.00,2017-05-23 19:12:00,
2017-05-23 12:17:00,59.8,52.9,30.02,WSW,239,14.0,19.0,78,0.00,,---,0.00,VWS V15.00,2017-05-23 19:17:00,
2017-05-23 12:21:00,60.6,53.4,30.02,NW,309,2.0,19.0,77,0.00,,---,0.00,VWS V15.00,2017-05-23 19:21:00,
2017-05-23 12:26:00,60.4,52.5,30.02,NE,46,2.0,20.0,75,0.00,,---,0.00,VWS V15.00,2017-05-23 19:26:00,
2017-05-23 12:31:00,59.6,51.3,30.02,West,275,13.0,28.0,74,0.00,,---,0.00,VWS V15.00,2017-05-23 19:31:00,
2017-05-23 12:36:00,59.0,51.8,30.02,SW,234,10.0,28.0,77,0.00,,---,0.00,VWS V15.00,2017-05-23 19:36:00,
2017-05-23 12:41:00,58.7,51.5,30.02,SSW,203,0.0,28.0,77,0.00,,---,0.00,VWS V15.00,2017-05-23 19:41:00,
2017-05-23 12:46:00,58.8,51.6,30.02,WSW,243,5.0,28.0,77,0.00,,---,0.00,VWS V15.00,2017-05-23 19:46:00,
2017-05-23 12:51:00,59.2,52.3,30.02,WSW,245,9.0,28.0,78,0.00,,---,0.00,VWS V15.00,2017-05-23 19:51:00,
2017-05-23 12:56:00,59.2,52.0,30.02,West,271,12.0,28.0,77,0.00,,---,0.00,VWS V15.00,2017-05-23 19:56:00,
2017-05-23 13:01:00,58.9,52.1,30.02,WSW,239,11.0,13.0,78,0.00,,---,0.00,VWS V15.00,2017-05-23 20:01:00,
2017-05-23 13:06:00,59.4,52.2,30.02,WSW,250,10.0,26.0,77,0.00,,---,0.00,VWS V15.00,2017-05-23 20:06:00,
2017-05-23 13:11:00,59.7,52.8,30.02,WSW,245,10.0,26.0,78,0.00,,---,0.00,VWS V15.00,2017-05-23 20:11:00,
2017-05-23 13:16:00,60.1,52.9,30.02,SW,232,6.0,26.0,77,0.00,,---,0.00,VWS V15.00,2017-05-23 20:16:00,
2017-05-23 13:21:00,60.5,52.9,30.02,NW,316,10.0,26.0,76,0.00,,---,0.00,VWS V15.00,2017-05-23 20:21:00,
2017-05-23 13:26:00,60.5,52.9,30.02,SW,227,0.0,26.0,76,0.00,,---,0.00,VWS V15.00,2017-05-23 20:26:00,
2017-05-23 13:31:00,61.1,53.1,30.02,WSW,250,16.0,19.0,75,0.00,,---,0.00,VWS V15.00,2017-05-23 20:31:00,
2017-05-23 13:36:00,61.4,53.4,30.02,West,281,19.0,25.0,75,0.00,,---,0.00,VWS V15.00,2017-05-23 20:36:00,
2017-05-23 13:41:00,60.8,52.8,30.02,WSW,244,12.0,25.0,75,0.00,,---,0.00,VWS V15.00,2017-05-23 20:41:00,
2017-05-23 13:46:00,60.8,53.5,30.02,NW,309,13.0,25.0,77,0.00,,---,0.00,VWS V15.00,2017-05-23 20:46:00,
2017-05-23 13:51:00,60.8,52.5,30.02,WSW,246,5.0,26.0,74,0.00,,---,0.00,VWS V15.00,2017-05-23 20:51:00,
2017-05-23 13:56:00,60.4,52.5,30.02,West,274,8.0,26.0,75,0.00,,---,0.00,VWS V15.00,2017-05-23 20:56:00,
2017-05-23 14:01:00,60.1,52.5,30.03,WSW,243,13.0,17.0,76,0.00,,---,0.00,VWS V15.00,2017-05-23 21:01:00,
2017-05-23 14:06:00,59.1,51.9,30.02,West,273,8.0,28.0,77,0.00,,---,0.00,VWS V15.00,2017-05-23 21:06:00,
2017-05-23 14:11:00,58.9,52.1,30.03,WSW,257,14.0,28.0,78,0.00,,---,0.00,VWS V15.00,2017-05-23 21:11:00,
2017-05-23 14:16:00,59.0,52.2,30.03,SW,221,8.0,28.0,78,0.00,,---,0.00,VWS V15.00,2017-05-23 21:16:00,
2017-05-23 14:21:00,59.2,52.3,30.03,WSW,238,16.0,28.0,78,0.00,,---,0.00,VWS V15.00,2017-05-23 21:21:00,
2017-05-23 14:26:00,58.6,51.4,30.03,WSW,245,11.0,29.0,77,0.00,,---,0.00,VWS V15.00,2017-05-23 21:26:00,
2017-05-23 14:31:00,58.1,51.6,30.03,South,186,8.0,13.0,79,0.00,,---,0.00,VWS V15.00,2017-05-23 21:31:00,
2017-05-23 14:36:00,58.2,51.4,30.03,WSW,242,4.0,21.0,78,0.00,,---,0.00,VWS V15.00,2017-05-23 21:36:00,
2017-05-23 14:41:00,58.2,52.1,30.03,North,359,3.0,23.0,80,0.00,,---,0.00,VWS V15.00,2017-05-23 21:41:00,
2017-05-23 14:46:00,58.0,51.9,30.03,SW,236,9.0,25.0,80,0.00,,---,0.00,VWS V15.00,2017-05-23 21:46:00,
2017-05-23 14:51:00,57.5,51.4,30.03,West,263,14.0,25.0,80,0.00,,---,0.00,VWS V15.00,2017-05-23 21:51:00,
2017-05-23 14:56:00,57.1,52.0,30.03,SW,229,23.0,25.0,83,0.00,,---,0.00,VWS V15.00,2017-05-23 21:56:00,
2017-05-23 15:01:00,57.4,52.3,30.03,WSW,251,3.0,14.0,83,0.00,,---,0.00,VWS V15.00,2017-05-23 22:01:00,
2017-05-23 15:06:00,57.7,52.2,30.03,WSW,239,2.0,21.0,82,0.00,,---,0.00,VWS V15.00,2017-05-23 22:06:00,
2017-05-23 15:11:00,57.3,51.9,30.03,WSW,247,16.0,24.0,82,0.00,,---,0.00,VWS V15.00,2017-05-23 22:11:00,
2017-05-23 15:16:00,57.3,51.9,30.03,WSW,254,9.0,25.0,82,0.00,,---,0.00,VWS V15.00,2017-05-23 22:16:00,
2017-05-23 15:21:00,56.6,51.2,30.04,SSW,210,10.0,25.0,82,0.00,,---,0.00,VWS V15.00,2017-05-23 22:21:00,
2017-05-23 15:26:00,55.7,51.0,30.03,SW,233,8.0,25.0,84,0.00,,---,0.00,VWS V15.00,2017-05-23 22:26:00,
2017-05-23 15:31:00,55.4,51.0,30.04,SW,228,10.0,21.0,85,0.00,,---,0.00,VWS V15.00,2017-05-23 22:31:00,
2017-05-23 15:36:00,55.3,50.9,30.04,WSW,242,8.0,30.0,85,0.00,,---,0.00,VWS V15.00,2017-05-23 22:36:00,
2017-05-23 15:41:00,55.3,51.2,30.04,West,272,2.0,30.0,86,0.00,,---,0.00,VWS V15.00,2017-05-23 22:41:00,
2017-05-23 15:46:00,55.1,51.0,30.04,SW,221,9.0,30.0,86,0.00,,---,0.00,VWS V15.00,2017-05-23 22:46:00,
2017-05-23 15:51:00,54.8,50.7,30.04,WSW,254,4.0,30.0,86,0.00,,---,0.00,VWS V15.00,2017-05-23 22:51:00,
2017-05-23 15:56:00,54.8,51.0,30.04,WNW,288,0.0,30.0,87,0.00,,---,0.00,VWS V15.00,2017-05-23 22:56:00,
2017-05-23 16:01:00,54.5,50.4,30.04,West,262,9.0,19.0,86,0.00,,---,0.00,VWS V15.00,2017-05-23 23:01:00,
2017-05-23 16:06:00,54.4,50.3,30.04,WSW,255,15.0,26.0,86,0.00,,---,0.00,VWS V15.00,2017-05-23 23:06:00,
2017-05-23 16:11:00,54.7,50.3,30.04,WSW,240,3.0,28.0,85,0.00,,---,0.00,VWS V15.00,2017-05-23 23:11:00,
2017-05-23 16:16:00,54.0,49.3,30.04,WSW,253,8.0,31.0,84,0.00,,---,0.00,VWS V15.00,2017-05-23 23:16:00,
2017-05-23 16:21:00,54.0,49.6,30.04,WSW,247,10.0,31.0,85,0.00,,---,0.00,VWS V15.00,2017-05-23 23:21:00,
2017-05-23 16:26:00,54.6,49.9,30.05,WSW,237,7.0,31.0,84,0.00,,---,0.00,VWS V15.00,2017-05-23 23:26:00,
2017-05-23 16:31:00,54.6,49.2,30.04,SW,214,9.0,17.0,82,0.00,,---,0.00,VWS V15.00,2017-05-23 23:31:00,
2017-05-23 16:36:00,54.3,48.9,30.04,SW,233,5.0,30.0,82,0.00,,---,0.00,VWS V15.00,2017-05-23 23:36:00,
2017-05-23 16:41:00,54.7,49.7,30.04,SW,232,1.0,30.0,83,0.00,,---,0.00,VWS V15.00,2017-05-23 23:41:00,
2017-05-23 16:43:00,54.8,49.4,30.04,SW,235,11.0,30.0,82,0.00,,---,0.00,VWS V15.00,2017-05-23 23:43:00,
2017-05-23 16:48:00,54.6,49.2,30.04,SSW,193,9.0,30.0,82,0.00,,---,0.00,VWS V15.00,2017-05-23 23:48:00,
2017-05-23 16:53:00,54.6,49.2,30.04,WSW,254,6.0,30.0,82,0.00,,---,0.00,VWS V15.00,2017-05-23 23:53:00,
2017-05-23 16:58:00,54.4,48.7,30.04,SW,219,10.0,30.0,81,0.00,,---,0.00,VWS V15.00,2017-05-23 23:58:00,
2017-05-23 17:03:00,53.7,48.3,30.05,SW,229,11.0,22.0,82,0.00,,---,0.00,VWS V15.00,2017-05-24 00:03:00,
2017-05-23 17:08:00,53.2,47.9,30.04,SW,225,10.0,24.0,82,0.00,,---,0.00,VWS V15.00,2017-05-24 00:08:00,
2017-05-23 17:13:00,53.2,48.2,30.03,West,271,5.0,24.0,83,0.00,,---,0.00,VWS V15.00,2017-05-24 00:13:00,
2017-05-23 17:18:00,53.5,48.5,30.03,WSW,250,11.0,24.0,83,0.00,,---,0.00,VWS V15.00,2017-05-24 00:18:00,
2017-05-23 17:23:00,53.6,48.2,30.04,SW,218,11.0,24.0,82,0.00,,---,0.00,VWS V15.00,2017-05-24 00:23:00,
2017-05-23 17:28:00,53.2,47.9,30.04,NNW,335,10.0,24.0,82,0.00,,---,0.00,VWS V15.00,2017-05-24 00:28:00,
2017-05-23 17:33:00,53.0,47.7,30.04,SW,224,24.0,24.0,82,0.00,,---,0.00,VWS V15.00,2017-05-24 00:33:00,
2017-05-23 17:38:00,52.6,47.3,30.04,WSW,238,12.0,24.0,82,0.00,,---,0.00,VWS V15.00,2017-05-24 00:38:00,
2017-05-23 17:43:00,52.7,47.4,30.05,West,261,11.0,24.0,82,0.00,,---,0.00,VWS V15.00,2017-05-24 00:43:00,
2017-05-23 17:48:00,52.8,46.8,30.05,SW,234,6.0,24.0,80,0.00,,---,0.00,VWS V15.00,2017-05-24 00:48:00,
2017-05-23 17:53:00,52.5,46.5,30.05,West,279,4.0,24.0,80,0.00,,---,0.00,VWS V15.00,2017-05-24 00:53:00,
2017-05-23 17:58:00,52.3,46.7,30.06,WSW,243,16.0,24.0,81,0.00,,---,0.00,VWS V15.00,2017-05-24 00:58:00,
2017-05-23 18:03:00,52.1,46.5,30.06,SW,235,9.0,19.0,81,0.00,,---,0.00,VWS V15.00,2017-05-24 01:03:00,
2017-05-23 18:08:00,52.4,46.8,30.06,SW,223,7.0,19.0,81,0.00,,---,0.00,VWS V15.00,2017-05-24 01:08:00,
2017-05-23 18:13:00,53.2,46.9,30.05,SW,231,10.0,21.0,79,0.00,,---,0.00,VWS V15.00,2017-05-24 01:13:00,
2017-05-23 18:18:00,52.9,46.2,30.06,WNW,282,8.0,26.0,78,0.00,,---,0.00,VWS V15.00,2017-05-24 01:18:00,
2017-05-23 18:23:00,52.5,46.2,30.05,WSW,245,7.0,26.0,79,0.00,,---,0.00,VWS V15.00,2017-05-24 01:23:00,
2017-05-23 18:28:00,52.2,45.9,30.05,SSW,203,7.0,26.0,79,0.00,,---,0.00,VWS V15.00,2017-05-24 01:28:00,
2017-05-23 18:33:00,52.1,45.8,30.05,WSW,242,3.0,20.0,79,0.00,,---,0.00,VWS V15.00,2017-05-24 01:33:00,
2017-05-23 18:38:00,52.2,46.2,30.06,SW,218,0.0,20.0,80,0.00,,---,0.00,VWS V15.00,2017-05-24 01:38:00,